{"data":{"norad_id":64431,"intl_designator":"2025-129V","name":"STARLINK-34524","alt_names":[],"object_type":"PAYLOAD","status":"ACTIVE","operator":null,"country":"US","launch_date":"2025-06-17","launch_site_code":"AFWTR","launch_vehicle":null,"mission":null,"orbit_class":"UNKNOWN","rcs_meters":null,"size_class":null,"mass_kg":null,"dimensions":null,"purposes":["comms"],"wikipedia_slug":null,"has_3d_model":false,"image_url":null,"decayed_at":null,"tle_current":{"epoch":"2026-05-25T05:26:24.553248Z","epoch_age_seconds":49332,"freshness":"FRESH","line1":"1 64431U 25129V   26145.22667307  .00002908  00000+0  25135-3 0  9995","line2":"2 64431  70.0006 241.4022 0003717 270.0366  90.0367 14.98337651 52694","mean_motion":14.98337651,"eccentricity":0.0003717,"inclination_deg":70.0006,"raan_deg":241.4022,"arg_perigee_deg":270.0366,"mean_anomaly_deg":90.0367,"bstar":0.00025135,"rev_number":5269,"period_min":96.106508372057,"perigee_km":569.44885305558,"apogee_km":574.61560886188,"semimajor_km":6950.1692309587,"source":"CELESTRAK","updated_at":"2026-05-25T13:38:20.443470Z"}}}